Regional Weather Roundup
Issued by NWS

Home | Current Version | Previous Version | Graphics & Text | Print | Product List | Glossary On
Versions: 1 2 3 4 5 6 7 8 9 10 11 12 13 14 15 16 17 18 19 20 21 22 23 24 25 26 27 28 29 30 31 32 33 34 35 36 37 38 39 40 41 42 43 44 45 46 47 48 49 50
000
ASUS43 KLMK 271102
RWRKY
KENTUCKY REGIONAL WEATHER ROUNDUP
NATIONAL WEATHER SERVICE LOUISVILLE KY
700 AM EDT WED JUL 27 2016

NOTE "FAIR" INDICATES FEW OR NO CLOUDS BELOW 12,000 FEET
WITH NO SIGNIFICANT WEATHER AND/OR OBSTRUCTIONS TO VISIBILITY.

KYZ001>023-026-027-061>063-070>075-271200-
WESTERN AND SOUTH CENTRAL KENTUCKY

CITY           SKY/WX    TMP DP  RH WIND       PRES   REMARKS
PADUCAH        CLEAR     74  72  93 CALM      29.98R FOG
HENDERSON      NOT AVBL
OWENSBORO      FOG       75  75 100 CALM      30.00R VSB 1/2
HOPKINSVILLE   CLOUDY    76  75  96 SW1       29.99R
BOWLING GREEN  CLEAR     77  75  93 SE6       30.01R FOG
GLASGOW        NOT AVBL
$$

KYZ024-025-028>034-038-045-046-053-271200-
NORTH CENTRAL KENTUCKY

CITY           SKY/WX    TMP DP  RH WIND       PRES   REMARKS
LOUISVILLE/SDF PTCLDY    76  72  87 CALM      30.00R
LOUISVILLE/LOU CLEAR     74  71  91 CALM      30.01R
FORT KNOX      PTCLDY    72  72 100 NW1       30.00R FOG
$$

KYZ035>037-039>044-047>052-055>060-089>105-271200-
NORTHEAST KENTUCKY

CITY           SKY/WX    TMP DP  RH WIND       PRES   REMARKS
LEXINGTON      PTCLDY    73  70  90 CALM      30.02R
COVINGTON      MOCLDY    74  73  97 CALM      30.02R FOG
FRANKFORT      MOCLDY    72  69  90 N3        30.00R FOG
$$

KYZ054-064>069-076>088-106>120-271200-
SOUTHEAST KENTUCKY

CITY           SKY/WX    TMP DP  RH WIND       PRES   REMARKS
JACKSON        MOCLDY    73  71  93 CALM      30.04R
LONDON         CLOUDY    75  72  90 SW3       30.04R
SOMERSET       CLOUDY    73  73 100 CALM      30.05R
MIDDLESBORO    CLEAR     72  72  99 CALM      30.07R
MONTICELLO     LGT RAIN N/A N/A N/A MISG      30.06R
$$





USA.gov is the U.S. government's official web portal to all federal, state and local government web resources and services.